Terminal Aerodrome Forecast
Issued by NWS Denver/Boulder, CO

Home | Current Version | Previous Version | Text Only | Print | Product List | Glossary On
Versions: 1 2 3 4 5 6 7 8 9 10 11 12 13 14 15 16 17 18 19 20 21 22 23 24 25 26 27 28 29 30 31 32 33 34 35 36 37 38 39 40 41 42 43 44 45 46 47 48 49 50
000
FTUS45 KBOU 242320
TAFDEN
TAF
KDEN 242320Z 2500/2606 29010KT P6SM FEW070 SCT140 BKN200
     FM250000 20009KT P6SM FEW140 BKN220
     FM250600 19007KT P6SM SCT140 BKN220
     FM251300 23006KT P6SM SCT140 BKN200
     FM251800 01012G25KT 4SM DU SCT080 BKN200
     FM252100 06010G20KT P6SM SCT080 BKN200
     FM252300 05012KT 3/4SM -SN OVC070=

USA.gov is the U.S. government's official web portal to all federal, state and local government web resources and services.